Time,TemperatureF,DewpointF,PressureIn,WindDirection,WindDirectionDegrees,WindSpeedMPH,WindSpeedGustMPH,Humidity,HourlyPrecipIn,Conditions,Clouds,dailyrainin,SoftwareType,DateUTC
2013-01-08 11:00:00,61.0,-99.9,30.29,NNE,20,17.0,-999.0,-999,-99.99,,,-99.99,,2013-01-08 21:00:00,
2013-01-08 11:23:00,61.0,-99.9,30.29,NNE,20,17.0,-999.0,-999,-99.99,,,-99.99,,2013-01-08 21:23:00,
2013-01-08 11:34:00,61.0,-99.9,30.29,NNE,20,17.0,-999.0,-999,-99.99,,,-99.99,,2013-01-08 21:34:00,
2013-01-08 11:43:00,61.0,-99.9,30.29,NNE,20,17.0,-999.0,-999,-99.99,,,-99.99,,2013-01-08 21:43:00,
2013-01-08 11:53:00,61.0,-99.9,30.29,NNE,20,17.0,-999.0,-999,-99.99,,,-99.99,,2013-01-08 21:53:00,
2013-01-08 12:23:00,65.0,-99.9,30.29,NNE,30,15.0,-999.0,-999,-99.99,,,-99.99,,2013-01-08 22:23:00,
2013-01-08 12:33:00,65.0,-99.9,30.29,NNE,30,15.0,-999.0,-999,-99.99,,,-99.99,,2013-01-08 22:33:00,
2013-01-08 13:00:00,69.0,-99.9,30.29,ENE,70,10.0,-999.0,-999,-99.99,,,-99.99,,2013-01-08 23:00:00,
2013-01-08 13:23:00,69.0,-99.9,30.29,ENE,70,10.0,-999.0,-999,-99.99,,,-99.99,,2013-01-08 23:23:00,
2013-01-08 13:33:00,69.0,-99.9,30.29,ENE,70,10.0,-999.0,-999,-99.99,,,-99.99,,2013-01-08 23:33:00,
2013-01-08 13:43:00,69.0,-99.9,30.29,ENE,70,10.0,-999.0,-999,-99.99,,,-99.99,,2013-01-08 23:43:00,
2013-01-08 13:53:00,69.0,-99.9,30.29,ENE,70,10.0,-999.0,-999,-99.99,,,-99.99,,2013-01-08 23:53:00,
2013-01-08 14:00:00,69.0,-99.9,30.29,ENE,60,16.0,-999.0,-999,-99.99,,,-99.99,,2013-01-09 00:00:00,
2013-01-08 14:23:00,69.0,-99.9,30.29,ENE,60,16.0,-999.0,-999,-99.99,,,-99.99,,2013-01-09 00:23:00,
2013-01-08 14:33:00,69.0,-99.9,30.29,ENE,60,16.0,-999.0,-999,-99.99,,,-99.99,,2013-01-09 00:33:00,
2013-01-08 14:43:00,69.0,-99.9,30.29,ENE,60,16.0,-999.0,-999,-99.99,,,-99.99,,2013-01-09 00:43:00,
2013-01-08 14:53:00,69.0,-99.9,30.29,ENE,60,16.0,-999.0,-999,-99.99,,,-99.99,,2013-01-09 00:53:00,
2013-01-08 15:22:00,69.0,-99.9,30.30,ENE,70,14.0,-999.0,-999,-99.99,,,-99.99,,2013-01-09 01:22:00,
2013-01-08 16:33:00,70.0,-99.9,30.30,ENE,60,17.0,-999.0,-999,-99.99,,,-99.99,,2013-01-09 02:33:00,
2013-01-08 17:00:00,70.0,-99.9,30.31,NE,50,18.0,-999.0,-999,-99.99,,,-99.99,,2013-01-09 03:00:00,
2013-01-08 17:22:00,70.0,-99.9,30.31,NE,50,18.0,-999.0,-999,-99.99,,,-99.99,,2013-01-09 03:22:00,
2013-01-08 17:33:00,70.0,-99.9,30.31,NE,50,18.0,-999.0,-999,-99.99,,,-99.99,,2013-01-09 03:33:00,
2013-01-08 17:43:00,70.0,-99.9,30.31,NE,50,18.0,-999.0,-999,-99.99,,,-99.99,,2013-01-09 03:43:00,
2013-01-08 17:53:00,70.0,-99.9,30.31,NE,50,18.0,-999.0,-999,-99.99,,,-99.99,,2013-01-09 03:53:00,
2013-01-08 18:33:00,71.0,-99.9,30.30,East,90,13.0,-999.0,-999,-99.99,,,-99.99,,2013-01-09 04:33:00,
2013-01-08 19:22:00,70.0,-99.9,30.30,East,100,13.0,-999.0,-999,-99.99,,,-99.99,,2013-01-09 05:22:00,
2013-01-08 20:22:00,71.0,-99.9,30.29,ESE,110,17.0,-999.0,-999,-99.99,,,-99.99,,2013-01-09 06:22:00,
2013-01-08 21:22:00,70.0,-99.9,30.27,East,90,16.0,-999.0,-999,-99.99,,,-99.99,,2013-01-09 07:22:00,
2013-01-08 21:32:00,70.0,-99.9,30.27,East,90,16.0,-999.0,-999,-99.99,,,-99.99,,2013-01-09 07:32:00,
2013-01-08 22:00:00,70.0,-99.9,30.28,East,100,16.0,-999.0,-999,-99.99,,,-99.99,,2013-01-09 08:00:00,
2013-01-08 22:22:00,70.0,-99.9,30.28,East,100,16.0,-999.0,-999,-99.99,,,-99.99,,2013-01-09 08:22:00,
2013-01-08 22:33:00,70.0,-99.9,30.28,East,100,16.0,-999.0,-999,-99.99,,,-99.99,,2013-01-09 08:33:00,
2013-01-08 22:43:00,70.0,-99.9,30.28,East,100,16.0,-999.0,-999,-99.99,,,-99.99,,2013-01-09 08:43:00,
2013-01-08 22:53:00,70.0,-99.9,30.28,East,100,16.0,-999.0,-999,-99.99,,,-99.99,,2013-01-09 08:53:00,
2013-01-08 23:00:00,70.0,-99.9,30.29,ESE,120,15.0,-999.0,-999,-99.99,,,-99.99,,2013-01-09 09:00:00,
2013-01-08 23:22:00,70.0,-99.9,30.29,ESE,120,15.0,-999.0,-999,-99.99,,,-99.99,,2013-01-09 09:22:00,
2013-01-08 23:32:00,70.0,-99.9,30.29,ESE,120,15.0,-999.0,-999,-99.99,,,-99.99,,2013-01-09 09:32:00,
2013-01-08 23:42:00,70.0,-99.9,30.29,ESE,120,15.0,-999.0,-999,-99.99,,,-99.99,,2013-01-09 09:42:00,
2013-01-08 23:54:00,70.0,-99.9,30.29,ESE,120,15.0,-999.0,-999,-99.99,,,-99.99,,2013-01-09 09:54:00,